GFSMA_250_spd_009.txt.gz
Wind_Speed
22 19 25 25 24 25 25 30 38 38 39 32 21 17 18 18 20 16 16 17 17 18 20 19 17 14 14 8 9 6 10 9 10 12 11 10 7 8 7 7 7 8 9
21 21 23 24 25 24 26 28 34 38 39 41 44 30 19 22 20 22 20 20 21 21 21 22 23 20 18 14 12 10 9 14 13 14 14 15 10 9 9 8 9 6 7
20 20 21 24 24 23 26 28 32 35 35 41 39 46 38 23 26 25 25 25 24 24 25 24 22 23 24 19 17 16 12 14 18 17 17 16 15 13 12 10 8 6 6
17 19 22 23 26 28 26 27 31 35 39 44 48 44 41 50 22 30 32 29 30 29 27 27 29 26 22 23 23 20 14 16 17 22 22 18 20 19 17 15 11 8 7
16 19 22 26 28 31 33 31 32 36 41 43 45 49 40 42 49 21 32 37 33 32 33 32 29 31 28 24 23 24 24 24 22 23 25 26 22 23 21 19 15 11 8
21 21 24 27 30 32 33 35 36 36 39 43 43 47 49 46 42 49 23 33 39 37 34 36 35 32 33 32 31 25 29 29 25 27 28 30 28 27 25 23 20 16 11
25 26 25 29 32 35 35 35 38 38 38 40 42 42 48 51 46 45 49 19 34 41 42 38 38 38 35 34 34 31 31 34 33 30 29 35 35 32 30 28 25 21 17
26 31 30 31 32 35 35 35 39 41 42 43 42 44 48 52 48 41 50 44 19 35 44 45 43 40 40 38 37 36 34 38 38 35 35 34 40 38 35 33 30 26 22
28 30 32 33 36 38 38 37 39 45 46 46 43 41 44 47 44 41 46 44 45 26 37 47 47 46 44 43 41 42 41 37 42 41 39 35 41 43 41 38 35 31 27
33 33 36 37 40 40 39 39 38 45 46 49 48 44 43 45 43 41 43 47 51 54 24 36 49 50 49 48 47 45 47 46 43 45 44 41 38 46 44 43 39 36 32
35 36 39 41 42 42 41 36 40 44 49 50 50 51 47 46 46 48 44 47 55 56 49 24 37 52 53 52 52 51 49 50 50 46 48 47 43 43 48 47 44 40 38
38 38 39 41 44 44 41 40 43 44 50 51 52 51 48 51 52 51 40 35 45 52 56 45 26 37 53 56 56 56 55 54 54 53 50 52 50 46 47 51 49 46 42
43 43 44 46 48 48 44 46 44 43 45 52 55 53 47 49 52 49 43 41 49 60 70 64 35 27 38 54 60 62 61 60 58 57 58 56 55 52 50 51 53 49 46
48 48 50 50 56 48 43 43 46 46 48 54 58 56 46 52 53 45 42 50 52 63 67 65 56 33 31 43 59 67 68 66 65 64 60 62 61 58 54 54 55 54 51
48 50 52 54 47 48 47 46 45 48 54 55 52 55 54 55 55 45 39 48 50 64 75 76 71 42 29 39 49 65 71 72 70 70 66 66 66 65 61 58 57 58 56
54 57 50 50 50 49 47 50 50 55 57 56 55 61 62 60 57 49 42 47 50 57 72 79 78 71 40 43 53 63 72 77 77 75 73 69 70 70 67 63 59 59 60
57 59 55 49 47 46 52 57 57 59 59 65 66 71 65 61 56 56 47 49 51 61 77 88 80 82 67 51 55 58 72 77 82 81 79 76 72 74 72 68 64 60 59
49 53 56 47 46 55 57 62 65 66 66 77 81 76 68 60 56 49 47 52 58 64 81 84 87 88 79 54 52 53 61 75 78 84 81 81 78 74 74 74 69 64 61
46 51 51 49 52 58 63 66 65 71 72 84 82 84 73 57 54 50 51 57 71 81 85 85 89 93 74 63 51 53 48 56 75 79 85 84 84 79 77 78 76 70 65
54 50 57 56 54 59 68 68 71 79 88 91 88 86 71 50 39 54 55 69 74 89 91 93 91 86 73 64 54 51 49 46 58 77 81 86 86 87 82 79 81 78 71
62 66 60 54 61 69 76 84 85 84 90 95 84 86 59 58 39 54 60 77 92 97 94 92 88 82 70 60 51 49 49 47 51 72 80 82 88 90 88 83 82 83 78
50 53 67 70 68 76 81 85 86 91 93 91 91 71 68 60 46 61 75 92 93 102 98 95 86 73 69 59 47 45 45 46 53 62 75 81 85 91 93 88 83 84 83
52 55 65 72 85 86 85 86 89 92 92 86 74 73 60 56 62 82 90 96 100 101 100 93 84 74 68 57 45 44 43 44 51 57 65 78 77 87 93 89 86 81 84
51 62 67 75 86 89 87 86 83 88 82 80 78 73 73 74 85 89 96 101 101 100 102 93 75 71 63 51 46 42 43 44 49 51 59 71 72 78 84 92 89 85 82
59 58 65 75 82 82 82 79 77 74 72 78 70 68 75 84 90 96 96 96 98 103 101 88 80 64 60 50 45 41 39 44 46 49 54 54 66 71 77 88 94 91 86
58 64 69 74 79 80 80 82 81 71 69 73 77 82 84 92 96 96 100 103 103 99 93 87 74 64 53 47 40 36 36 42 44 48 39 52 66 73 79 90 95 95 89

GFSMA_250_spd_015.txt.gz
Wind_Speed
18 19 20 19 21 23 28 29 25 31 30 28 23 26 30 38 30 22 22 21 23 23 26 24 22 21 18 16 13 10 10 10 13 11 12 11 8 11 7 3 7 10 10
17 19 19 18 22 25 27 31 33 29 28 31 30 30 29 33 34 33 26 19 27 26 27 26 28 24 23 22 20 20 15 14 12 13 14 15 12 11 12 9 8 9 10
18 19 19 20 21 23 26 28 32 30 28 28 29 31 32 32 34 36 31 25 17 35 31 31 28 33 27 26 24 22 19 20 15 13 19 15 17 14 14 14 12 9 9
19 20 21 22 23 25 26 26 29 29 29 29 31 30 34 36 35 34 34 35 33 17 37 33 33 30 28 28 26 25 23 20 22 18 13 17 18 18 16 18 16 13 12
21 21 22 22 24 25 27 28 29 28 28 27 30 31 34 37 38 38 35 38 37 38 18 40 36 36 34 31 31 30 28 26 24 24 15 22 21 21 20 20 20 16 15
22 23 23 23 24 25 27 27 28 28 28 27 29 28 31 35 38 41 37 37 40 42 31 21 42 40 38 37 38 35 33 30 28 29 25 20 23 25 24 23 22 20 18
23 23 24 24 23 25 25 28 29 31 31 29 27 28 26 34 40 48 42 36 40 40 36 30 27 43 43 41 40 40 39 34 32 32 32 29 24 27 29 27 28 26 22
22 23 23 26 27 30 31 32 32 35 32 28 25 28 23 30 39 45 48 41 41 42 36 35 33 29 41 47 44 43 42 41 36 36 37 35 34 29 32 34 32 32 29
23 25 28 29 31 33 36 37 37 35 31 27 27 30 26 29 35 38 45 44 43 48 45 36 29 27 16 37 48 47 45 46 45 42 43 41 38 38 35 36 38 36 35
27 29 30 34 37 39 38 37 36 29 32 26 29 32 32 38 35 42 37 48 46 49 44 34 33 21 19 19 35 49 49 49 48 49 48 48 45 43 43 40 39 42 40
31 33 36 38 38 40 39 35 34 30 33 30 30 30 36 39 39 39 44 47 50 53 44 35 31 24 15 27 18 30 50 52 52 52 54 52 50 50 48 48 46 43 47
36 38 41 42 43 40 39 35 31 34 35 32 33 37 42 41 36 38 47 43 49 54 46 42 32 24 21 24 17 15 18 46 55 57 58 58 57 56 55 54 53 51 46
39 42 43 44 40 38 36 36 35 39 41 43 39 45 43 47 34 48 45 46 50 47 49 40 29 21 23 35 29 21 17 19 30 59 64 64 62 64 63 60 59 58 54
41 44 45 42 43 40 39 38 40 41 46 51 50 44 50 48 46 53 55 55 54 44 54 39 34 30 30 36 38 39 37 35 38 40 65 73 71 68 70 69 64 64 61
44 44 43 40 43 42 41 41 42 43 47 49 46 48 52 53 51 58 59 60 55 61 46 44 41 36 37 32 44 52 53 55 50 45 48 73 80 79 78 76 74 68 66
46 40 40 41 45 42 38 40 42 46 47 48 51 54 53 51 60 63 63 61 62 64 55 46 48 36 37 46 45 48 59 70 71 62 50 64 79 89 87 85 82 76 73
48 42 42 44 45 41 39 42 45 48 55 51 53 55 50 56 63 61 68 67 70 71 69 69 50 36 45 52 53 53 69 71 69 64 48 56 74 88 98 94 90 85 78
49 44 42 42 47 38 40 49 53 51 51 55 54 54 57 64 61 68 70 74 70 70 62 56 55 52 44 47 53 60 73 77 64 77 64 53 63 78 101 103 96 93 86
51 45 46 42 45 41 41 47 56 56 55 53 54 59 63 66 71 71 71 74 73 69 64 63 60 62 64 66 67 73 73 70 78 83 59 54 55 71 81 101 102 99 94
49 43 45 44 47 39 41 47 52 58 63 57 56 63 65 67 69 72 74 72 76 77 68 71 66 67 67 68 74 76 72 85 90 76 66 58 59 63 74 74 96 104 101
51 49 49 48 49 48 46 54 59 61 65 68 69 70 73 74 76 76 76 75 68 67 70 71 70 72 78 85 77 78 84 95 77 74 72 64 55 54 60 64 75 99 104
51 49 51 52 52 55 56 58 63 69 72 75 76 77 79 79 77 74 73 70 67 72 74 76 79 82 89 78 90 98 104 86 81 80 72 64 51 48 53 58 67 86 101
53 53 52 53 58 61 62 65 67 67 70 72 75 74 74 73 74 74 71 70 79 82 80 80 88 96 94 98 100 102 82 81 80 80 70 60 47 46 47 55 63 76 92
56 54 55 55 57 61 62 69 69 65 66 70 76 75 72 73 71 76 77 80 83 87 87 92 94 94 97 99 108 89 88 86 82 80 66 50 44 44 48 53 59 65 81
59 57 60 63 64 62 67 67 68 67 67 67 66 63 63 69 72 79 81 79 83 85 84 87 95 103 105 107 95 87 79 79 74 68 55 40 44 41 41 48 56 58 73
63 63 65 68 68 70 70 68 70 69 68 72 71 72 76 80 79 86 89 87 87 88 87 98 105 103 104 98 95 90 82 66 53 52 42 39 41 38 42 50 56 57 64

GFSMA_250_spd_021.txt.gz
Wind_Speed
13 14 15 15 17 18 18 19 19 20 18 14 16 18 26 26 20 11 11 15 13 9 13 28 29 28 28 26 23 18 15 11 4 7 9 11 11 12 11 8 5 6 6
13 14 16 17 19 21 22 22 21 21 18 15 7 8 19 27 24 17 19 20 15 13 11 8 27 30 29 28 27 24 22 20 18 14 11 10 14 12 12 11 7 9 6
14 15 15 17 19 20 21 22 21 21 21 21 11 9 17 20 26 27 28 29 22 15 11 11 7 28 28 29 28 26 25 25 23 20 14 14 13 15 14 15 13 11 9
16 15 15 16 18 21 22 23 22 22 22 22 14 11 16 13 21 25 25 31 37 36 14 10 12 14 26 27 28 25 29 29 28 25 21 23 16 16 15 15 16 16 13
16 15 17 17 20 22 24 25 24 23 20 15 15 10 13 17 21 27 21 22 31 38 31 24 13 9 14 31 31 32 32 30 29 29 26 25 23 15 16 19 19 19 18
16 17 18 20 22 24 26 26 23 23 18 10 12 11 14 14 24 26 23 22 26 27 39 34 22 14 8 12 33 35 34 32 34 31 29 27 25 22 14 19 22 21 24
18 21 23 25 26 27 26 26 25 27 21 11 14 10 19 18 24 23 27 22 24 27 29 33 33 22 19 8 15 35 38 37 34 35 31 29 30 28 28 19 23 25 23
21 24 27 30 31 30 27 25 27 27 26 18 20 19 20 20 23 24 29 26 23 27 30 27 35 28 25 25 14 14 33 39 40 36 34 34 34 33 33 31 23 27 27
25 27 31 32 33 32 27 27 31 31 27 22 23 28 28 23 26 26 30 29 25 25 31 23 35 33 31 31 21 17 16 28 44 45 42 35 38 36 34 30 31 27 31
27 30 32 36 39 39 35 31 31 31 31 28 26 25 26 28 30 34 33 27 26 25 27 29 30 34 30 41 22 19 15 15 18 38 47 48 44 41 42 39 36 33 32
28 32 35 36 39 41 42 38 36 35 35 34 31 30 29 31 32 35 36 37 32 23 28 32 30 35 33 36 28 28 16 11 18 20 32 48 50 48 44 45 45 43 40
27 31 35 37 39 43 43 42 38 36 36 36 35 37 35 32 35 37 38 38 37 33 30 32 37 36 39 38 34 30 24 21 23 20 15 22 39 50 53 52 50 51 50
29 32 36 39 40 41 43 45 42 40 39 40 41 42 39 38 39 40 39 42 44 38 33 32 34 41 34 45 33 29 30 10 15 18 20 25 19 23 39 57 63 58 54
32 34 35 39 44 47 45 47 47 44 42 43 44 47 45 44 45 46 45 47 49 42 35 33 40 36 43 43 28 32 35 24 21 19 22 17 15 26 31 29 54 63 66
35 36 37 39 41 44 47 47 48 46 43 44 45 45 46 47 47 48 49 48 47 46 35 35 40 41 49 46 24 24 26 33 29 27 29 32 34 27 27 30 30 36 61
36 39 40 42 44 46 48 48 48 47 45 43 47 48 46 47 50 50 49 49 53 55 43 42 44 56 50 38 34 34 28 35 37 38 42 45 42 44 41 38 30 29 37
39 40 43 45 46 50 51 52 51 50 48 48 49 51 52 53 51 51 51 48 48 51 47 55 58 52 46 39 36 39 42 44 47 51 44 52 54 55 47 46 39 33 34
42 44 45 48 50 52 53 54 54 54 53 53 54 52 55 56 57 56 55 51 50 52 53 55 51 46 41 44 44 47 50 51 52 48 62 59 57 64 56 49 49 48 43
44 46 49 52 53 56 59 59 58 57 53 54 55 56 56 60 61 61 56 54 52 51 54 55 47 46 51 53 54 56 57 55 57 62 60 64 61 71 60 61 61 63 63
46 48 50 52 53 57 60 61 61 59 54 55 57 59 62 62 61 60 59 60 58 58 58 56 54 55 58 60 60 61 62 64 67 66 69 68 72 69 63 66 70 74 76
50 50 52 54 55 58 62 64 63 61 59 58 61 64 63 67 62 61 63 61 61 61 63 62 62 56 68 72 68 68 72 78 78 77 76 75 70 66 79 77 77 82 86
55 55 56 56 58 61 63 65 63 61 61 64 64 68 67 68 65 63 65 63 64 65 65 66 66 68 72 76 79 82 85 79 76 74 76 83 80 83 84 88 89 89 85
59 60 61 62 62 65 66 67 65 64 63 65 69 70 72 69 67 64 67 64 67 68 70 73 75 74 74 77 74 74 75 77 83 84 82 81 81 86 93 93 91 86 75
64 64 67 67 67 68 69 70 68 67 65 72 73 73 74 72 68 70 70 71 71 75 78 79 77 75 74 74 75 74 75 75 74 74 73 69 73 76 80 81 78 72 66
69 70 71 71 71 72 73 71 70 69 71 74 76 77 75 73 74 74 76 76 77 79 81 78 74 73 73 73 74 72 73 73 74 80 85 79 79 80 81 80 71 58 49
73 75 71 74 75 76 76 74 79 77 78 78 78 77 76 75 77 78 81 79 81 83 78 76 72 73 75 76 77 78 79 80 81 83 89 80 78 74 70 65 52 43 40

GFSMA_250_spd_024.txt.gz
Wind_Speed
12 13 15 15 17 18 16 17 16 13 10 3 5 14 15 18 17 14 19 16 15 14 12 12 15 21 22 23 25 21 17 8 9 8 7 12 14 13 13 13 8 8 7
14 13 15 16 16 19 19 21 21 19 14 10 5 8 9 12 21 17 20 24 24 13 14 18 17 19 17 22 24 26 24 21 20 18 13 12 15 15 13 13 11 10 8
17 16 16 17 20 24 25 23 22 21 18 12 2 2 9 10 17 14 15 19 29 25 22 18 18 15 20 13 21 26 26 27 25 25 21 14 15 15 16 15 15 12 11
17 17 19 22 23 24 24 23 22 24 19 12 8 5 8 10 16 19 17 13 18 25 29 21 19 13 11 24 21 14 29 31 29 27 26 21 18 19 17 17 16 17 16
16 18 22 24 25 25 23 20 20 22 21 16 14 10 15 16 17 19 17 13 16 17 22 28 19 17 12 12 26 27 26 24 27 29 28 27 23 23 23 21 20 20 19
19 20 24 26 29 29 25 24 25 24 23 17 16 19 21 20 17 19 19 13 15 17 19 26 25 28 16 8 16 30 35 32 28 25 24 27 28 27 25 24 21 23 23
19 22 23 27 28 31 27 25 27 28 24 23 18 23 24 21 19 20 22 20 11 14 15 18 25 23 29 24 14 15 32 38 34 36 31 30 30 29 29 28 22 21 25
19 21 26 27 30 32 31 31 28 28 29 29 21 19 24 23 18 23 24 23 26 17 14 14 17 23 25 19 37 14 9 28 40 39 35 34 34 30 30 32 31 29 23
19 23 26 30 31 34 35 34 34 31 28 27 28 25 24 24 24 24 27 25 26 26 23 14 16 22 22 24 25 25 17 9 15 41 47 38 34 35 34 35 34 31 31
20 25 28 29 32 32 35 36 36 35 33 29 30 29 30 28 27 28 28 26 27 29 29 25 21 23 25 26 24 30 19 14 14 10 16 45 51 42 39 41 38 36 37
21 24 26 28 30 33 34 37 37 35 34 32 29 30 31 29 30 31 32 30 29 27 30 26 26 22 20 27 25 30 18 13 20 19 19 20 25 46 50 43 42 43 41
22 25 27 30 31 32 34 34 36 35 33 33 32 31 31 32 32 32 34 34 33 34 29 26 27 25 29 25 21 29 22 18 16 28 27 20 20 23 36 47 47 47 48
24 27 29 31 33 34 34 35 38 39 38 36 35 33 32 35 35 35 35 35 35 37 36 35 32 27 27 31 29 36 30 22 18 13 26 24 24 26 22 22 34 46 50
25 28 30 33 35 37 38 39 39 40 40 39 37 37 35 35 34 34 35 36 37 38 36 38 35 36 30 30 31 37 34 26 24 22 17 25 24 21 19 32 28 30 36
28 29 32 34 36 38 40 41 41 40 40 41 38 34 36 36 38 39 39 40 40 36 36 35 34 37 36 43 37 33 29 29 33 31 31 26 29 30 34 26 31 31 33
32 33 35 36 39 40 42 44 44 42 44 44 44 39 39 40 43 44 46 48 41 36 35 35 35 37 42 41 41 35 29 27 36 38 40 39 38 40 47 38 45 37 36
35 36 38 38 40 42 46 48 49 49 49 51 50 45 44 43 44 49 51 51 47 46 43 42 39 38 40 41 39 38 37 34 42 42 47 47 54 51 49 47 53 46 48
37 38 39 43 44 45 48 51 54 55 56 54 52 50 47 47 50 56 56 53 49 50 49 49 44 45 46 44 42 36 41 44 47 50 56 58 58 58 54 59 60 60 60
42 42 43 45 46 48 50 53 54 59 61 62 57 56 55 53 59 61 61 60 56 56 55 54 52 52 49 44 43 44 49 53 59 62 61 64 63 60 64 65 68 68 64
47 46 47 48 50 51 53 55 57 60 63 63 61 61 59 58 65 66 65 64 60 60 60 56 56 59 53 52 52 56 55 59 63 67 68 71 68 70 75 77 77 71 70
52 51 52 54 54 55 57 60 61 62 64 67 65 64 62 66 68 69 69 67 67 66 64 64 63 62 58 56 57 57 61 66 72 76 75 77 76 73 76 73 71 72 79
56 55 54 57 58 59 61 64 65 65 67 64 69 67 68 71 71 72 72 73 71 68 69 65 69 65 64 65 63 61 60 63 63 69 66 71 69 70 73 72 74 75 73
60 61 60 60 62 63 64 67 67 67 67 68 68 66 72 74 74 74 74 73 71 73 72 72 70 70 68 67 63 64 63 63 66 69 69 70 72 72 72 73 74 74 72
64 66 65 65 67 67 69 72 70 69 68 70 71 72 77 77 75 72 75 73 74 74 72 70 72 70 67 67 66 68 73 74 76 78 78 74 79 78 79 81 83 81 78
68 70 68 71 74 74 75 74 71 71 73 68 71 76 76 77 75 76 74 76 77 77 74 76 73 71 71 72 74 78 82 81 79 79 82 74 77 79 83 84 84 79 74
71 72 72 75 80 81 73 67 76 76 75 73 77 77 77 81 79 78 76 74 73 74 80 92 79 75 77 79 82 85 82 78 76 73 75 68 65 63 66 70 69 65 59

GFSMA_250_spd_030.txt.gz
Wind_Speed
19 20 19 20 19 20 24 24 24 23 16 18 12 10 10 18 24 25 21 20 18 18 21 19 17 15 5 13 18 21 20 14 11 9 9 7 7 13 13 11 8 7 6
21 23 23 22 22 22 23 25 25 27 23 15 15 11 12 21 21 19 22 19 16 19 20 22 18 14 15 4 15 18 21 22 17 13 13 11 7 8 13 15 13 11 8
21 22 24 26 26 22 22 23 25 26 25 19 13 19 15 18 19 18 16 17 16 14 14 17 16 18 10 11 5 15 18 21 24 20 16 15 15 13 13 14 13 12 12
19 20 24 27 26 23 25 22 22 24 25 27 21 17 16 18 21 18 14 15 14 13 11 11 13 16 14 8 7 8 10 19 22 25 24 21 22 19 18 15 15 16 13
17 20 25 27 27 28 28 28 29 28 27 24 21 21 21 17 16 15 18 15 16 13 12 11 7 8 11 11 6 6 12 18 17 23 24 28 28 26 25 21 17 17 16
19 22 24 26 27 27 28 29 29 30 30 29 26 23 23 22 21 18 18 18 17 16 15 16 17 7 5 5 5 5 7 11 20 20 17 23 26 28 24 26 23 21 20
18 21 24 26 26 27 29 30 30 29 30 31 31 29 25 25 22 23 23 24 23 21 22 18 19 12 11 10 6 7 7 12 13 22 29 26 21 22 27 29 27 24 22
17 20 23 24 25 26 28 29 30 30 31 32 31 29 29 29 25 24 26 28 30 30 29 28 26 19 19 18 13 10 12 11 13 13 24 33 32 27 26 23 27 30 28
13 15 18 21 23 24 25 27 28 29 31 31 31 31 29 28 28 26 26 28 30 32 33 32 31 29 26 22 19 18 17 14 17 17 19 24 35 36 35 36 34 33 31
13 15 16 18 21 22 22 24 26 29 30 30 31 32 32 26 27 25 24 28 31 35 38 38 32 29 29 28 24 22 21 21 17 19 20 24 25 34 40 40 41 39 37
13 15 15 18 20 21 22 23 25 28 29 30 32 34 35 28 31 27 25 29 34 34 35 37 35 32 33 32 30 28 24 24 25 25 29 26 29 28 31 36 40 46 46
13 14 15 17 19 21 22 24 26 26 29 32 33 34 35 34 33 31 29 28 36 38 38 39 39 36 36 34 33 35 32 28 27 29 29 32 32 32 33 36 34 34 44
13 14 15 16 19 22 25 26 26 28 31 34 37 38 38 39 42 33 32 27 33 40 42 41 40 38 37 36 36 37 36 37 35 32 33 37 38 39 41 42 44 41 36
16 17 18 19 21 23 25 28 29 31 33 35 38 40 42 42 47 38 38 35 40 43 48 48 48 44 46 41 34 35 38 37 37 38 38 40 42 42 46 44 41 45 43
20 19 20 21 23 25 26 30 31 33 34 37 38 41 44 46 47 44 44 42 45 48 53 51 51 51 51 49 41 37 38 39 38 40 38 40 43 43 46 48 47 44 46
25 24 24 25 26 26 29 32 34 36 38 40 42 45 48 51 52 54 40 42 48 48 56 52 52 54 52 53 52 50 46 40 35 35 40 45 45 45 46 50 52 50 44
31 31 31 31 31 31 32 35 37 38 41 45 48 51 53 57 62 48 37 43 50 53 61 59 57 57 56 54 54 48 44 41 41 41 40 39 41 47 48 50 52 54 59
35 35 36 37 37 37 37 38 41 42 44 48 53 55 57 60 61 40 42 44 51 58 67 64 59 59 60 61 50 44 42 46 51 50 52 45 43 47 50 52 54 58 56
38 37 38 40 40 41 42 43 46 48 48 51 55 59 62 61 59 46 48 50 54 63 66 64 65 68 67 61 48 46 51 53 55 63 66 60 47 48 49 52 56 61 66
42 40 41 44 44 45 45 47 50 52 53 54 58 62 64 64 61 51 51 57 57 63 69 64 67 65 70 57 51 51 54 58 65 72 69 72 52 48 54 55 58 61 66
45 44 45 48 49 50 50 50 52 55 57 59 61 64 65 63 54 54 61 59 55 62 68 65 70 68 68 64 65 62 61 69 75 82 86 68 54 50 53 58 62 64 66
50 51 52 53 54 55 55 55 54 56 59 63 65 66 66 62 52 59 59 57 59 66 64 65 72 70 72 69 68 68 73 81 86 86 93 69 60 57 59 61 65 68 71
56 58 58 59 60 61 60 58 57 60 63 67 69 70 66 63 61 60 61 61 62 69 64 69 75 73 72 71 75 79 86 91 93 97 92 73 64 62 60 61 63 68 72
61 62 63 64 65 66 65 63 60 63 68 70 71 70 68 62 60 56 58 60 66 65 68 73 78 84 85 83 89 89 94 98 100 98 82 74 68 62 61 60 60 62 66
64 66 67 68 71 72 70 69 65 66 69 74 74 69 70 64 54 55 55 63 69 68 68 75 86 89 86 94 95 97 100 105 105 100 84 76 69 58 53 55 55 55 55
74 74 73 74 76 77 76 74 72 72 72 75 76 69 66 61 59 58 56 71 69 71 74 81 92 91 92 97 98 103 104 109 108 98 85 78 70 59 50 53 54 49 47

GFSMA_250_spd_033.txt.gz
Wind_Speed
22 25 24 22 22 23 23 24 26 23 16 18 17 13 10 17 18 18 19 22 20 20 23 22 24 24 17 7 12 14 17 18 13 11 10 10 11 12 12 11 11 9 7
23 25 26 25 23 22 21 24 25 25 22 16 17 15 13 17 18 20 18 19 17 16 19 21 20 22 20 15 6 13 15 19 19 16 13 12 12 12 12 12 13 10 10
22 24 25 22 22 24 27 27 26 23 23 21 20 17 15 16 17 18 19 20 21 20 16 16 18 17 17 15 11 7 8 16 20 22 18 17 16 13 11 10 14 14 11
21 23 23 22 25 28 27 26 28 28 28 27 22 22 20 20 18 20 22 20 20 20 19 14 14 11 12 13 13 8 7 14 13 19 25 23 21 19 17 15 13 13 15
20 20 22 24 26 27 27 29 29 30 30 30 31 30 27 23 24 24 25 24 24 22 23 21 20 15 11 7 9 11 9 12 14 15 20 23 26 23 24 23 20 17 16
20 19 23 23 24 26 27 29 30 32 32 34 34 31 30 29 28 27 28 29 30 30 30 25 22 18 12 15 12 13 14 15 15 15 20 17 18 23 26 26 24 24 23
17 18 20 21 23 24 26 27 28 30 32 34 32 31 28 29 27 27 29 31 32 30 32 34 28 23 22 21 19 17 15 15 16 18 18 25 23 18 16 18 24 28 28
13 14 17 19 21 22 23 24 25 26 28 32 34 34 28 27 28 25 27 31 32 34 36 35 33 32 30 29 26 22 20 22 21 23 19 21 27 29 26 19 21 25 30
8 10 13 16 17 19 19 20 21 23 26 28 30 31 30 28 32 27 25 26 32 35 34 35 35 32 31 32 29 27 25 25 24 23 22 22 24 28 32 34 36 34 31
7 9 10 12 15 16 17 18 20 22 23 27 29 29 30 29 34 29 27 25 26 33 37 38 36 32 34 31 33 31 29 29 29 27 26 26 23 25 30 34 37 42 43
8 9 9 11 12 13 14 16 18 19 21 23 25 28 31 33 35 36 27 29 26 30 35 45 44 39 34 36 32 32 30 27 29 32 31 29 30 32 28 36 40 41 43
8 10 10 10 11 11 14 16 17 20 22 23 26 27 30 33 35 37 33 34 28 32 33 46 44 43 46 40 36 32 33 29 29 30 30 31 32 31 35 34 38 43 44
11 11 12 14 14 14 15 17 18 20 22 25 27 29 32 34 37 41 45 26 23 30 34 40 50 43 47 51 47 44 37 32 30 30 32 32 34 36 39 42 41 43 47
13 14 14 15 19 21 20 20 21 22 24 27 30 32 35 37 39 42 47 25 22 28 36 43 45 46 51 51 48 45 37 31 28 31 35 39 40 40 41 43 45 46 48
18 16 19 21 21 22 26 25 25 26 27 30 34 37 39 43 46 47 47 40 34 33 46 47 45 46 54 55 57 59 50 37 31 28 26 29 31 34 41 46 50 52 51
24 24 22 24 25 26 27 28 29 30 32 34 37 40 43 46 49 52 51 50 37 37 43 43 44 49 57 59 59 61 60 54 45 35 36 34 35 39 41 44 48 55 54
26 28 29 28 29 31 30 31 32 34 36 37 40 43 46 50 52 55 56 51 43 43 43 43 50 54 58 61 61 61 67 70 68 41 45 54 58 56 55 52 48 50 57
29 29 32 32 34 35 36 35 36 38 40 42 44 48 50 53 56 58 60 49 50 49 54 52 51 54 56 58 62 61 65 77 68 70 72 79 69 69 65 54 45 47 56
34 32 34 35 36 39 40 41 41 42 44 46 48 50 53 56 59 58 58 54 52 56 56 54 51 50 55 60 66 73 76 75 78 75 80 79 81 82 72 58 47 48 54
38 39 40 41 42 44 45 45 47 48 49 52 53 54 56 58 62 61 62 62 58 60 53 52 50 52 55 65 70 81 85 86 86 90 89 97 90 92 80 63 52 50 56
43 44 45 46 47 48 50 50 52 54 55 56 58 58 58 60 63 65 66 67 61 53 54 46 56 59 63 72 80 85 88 91 91 94 99 102 102 95 85 71 56 52 53
50 50 52 53 54 53 54 55 57 58 59 59 61 62 62 63 65 65 66 64 58 51 50 47 55 59 66 79 82 87 96 95 84 96 101 103 110 99 88 73 59 52 52
56 57 57 58 59 58 59 59 61 60 63 66 65 66 68 65 62 65 62 55 51 51 52 50 56 64 70 80 86 93 96 100 96 98 99 114 116 119 101 77 61 49 45
62 62 63 63 62 65 65 65 67 66 67 70 70 70 68 63 60 57 52 52 46 51 53 51 60 67 73 83 91 95 104 99 103 99 109 114 120 122 98 85 67 54 47
69 68 69 69 69 70 71 71 72 72 72 75 74 71 63 57 47 43 48 52 47 52 60 56 65 70 79 88 97 105 100 101 108 102 111 115 117 104 101 87 71 60 54
72 75 74 73 73 73 74 73 74 69 64 53 49 47 46 43 42 44 49 46 47 53 50 60 68 76 84 96 100 104 104 107 114 108 112 111 109 104 95 85 71 62 55

GFSMA_250_spd_036.txt.gz
Wind_Speed
22 23 23 26 24 24 23 27 25 23 20 22 20 18 17 19 20 22 21 23 24 23 22 20 22 20 21 12 7 5 7 13 13 11 10 9 9 12 13 10 11 11 8
24 26 26 27 27 28 27 27 28 26 23 24 24 21 22 22 25 27 26 25 22 22 20 20 20 21 21 19 12 9 4 8 13 16 14 13 12 11 11 12 12 14 12
24 25 27 28 29 28 28 28 28 30 29 28 28 26 26 26 27 29 29 30 30 26 23 20 19 17 18 18 16 11 9 8 10 13 18 18 16 14 14 12 12 13 13
23 23 25 27 28 27 29 30 31 31 32 30 28 30 30 31 32 31 31 31 31 31 26 25 21 19 17 16 15 14 12 15 11 11 14 19 22 19 20 18 15 14 13
20 23 23 25 25 26 28 30 32 32 31 31 28 30 31 29 30 33 36 36 37 37 34 31 28 25 23 19 18 14 17 19 18 14 17 15 19 23 25 25 20 20 20
19 21 20 23 24 24 25 27 28 30 32 31 28 30 32 30 25 27 31 36 36 37 37 33 33 30 26 24 23 18 15 18 21 21 14 17 17 18 22 24 26 27 24
17 18 18 18 19 18 19 19 21 24 28 31 30 27 29 34 26 25 25 26 34 39 36 36 34 35 34 32 30 24 22 19 18 22 22 19 22 22 17 16 15 20 24
12 14 14 14 14 17 16 16 18 20 23 24 26 28 30 33 33 27 26 24 27 33 44 41 43 36 38 30 29 30 27 22 18 17 21 22 19 22 24 23 18 22 26
8 9 10 10 10 11 12 14 15 16 18 20 23 25 29 32 33 34 28 23 21 26 30 43 50 52 50 48 51 52 36 27 23 19 17 19 22 24 27 29 32 33 32
5 5 5 5 6 8 10 11 13 15 18 20 21 24 27 30 34 39 41 20 17 21 27 31 32 39 45 54 58 60 58 56 52 35 28 26 22 23 26 33 33 33 38
5 4 4 5 7 9 10 12 14 15 17 19 20 22 25 28 33 38 40 31 19 18 25 34 32 28 37 44 50 56 61 54 50 53 48 50 39 32 30 30 32 43 38
4 4 5 7 8 10 13 14 16 16 18 19 21 23 25 28 32 35 39 39 32 21 32 31 35 25 31 38 45 52 53 62 68 68 60 49 46 38 34 30 37 36 43
5 6 6 8 11 13 15 17 19 19 20 23 26 27 28 31 34 36 41 43 34 24 32 28 34 28 32 37 44 54 59 62 66 69 73 63 67 54 41 37 37 42 43
11 8 10 10 11 13 15 17 19 20 22 25 29 31 33 35 37 40 43 45 38 41 41 27 32 30 37 37 48 56 60 63 65 64 65 58 45 47 43 39 40 43 46
17 16 15 15 16 14 16 19 22 24 25 27 30 33 37 38 39 40 43 45 44 45 43 32 34 36 30 37 49 55 59 62 64 62 68 61 55 52 50 51 39 40 46
22 23 21 20 19 20 20 23 25 27 29 31 34 36 38 41 43 43 45 47 47 46 40 36 33 29 32 33 45 60 62 57 65 66 73 62 55 55 56 62 61 53 36
24 26 28 28 27 25 27 27 30 31 33 34 37 40 42 44 45 46 47 49 48 48 41 34 32 30 37 39 46 61 60 61 71 76 70 57 62 59 64 70 74 67 56
31 30 30 29 30 29 31 34 34 35 36 39 41 43 46 47 48 49 50 52 51 47 38 31 35 34 42 41 45 56 59 73 77 79 64 63 66 68 79 80 77 77 62
34 34 33 32 32 32 35 38 39 41 42 44 46 48 50 51 52 54 54 53 53 46 35 31 31 36 43 43 50 57 60 79 78 77 66 68 74 83 85 90 83 86 70
39 37 35 35 35 37 40 42 44 47 48 49 51 53 54 54 57 57 56 54 53 46 33 34 31 42 48 44 47 56 67 77 82 78 79 76 85 95 90 98 96 88 72
40 40 41 41 42 44 46 47 48 50 52 54 56 58 60 58 60 62 58 53 45 42 33 35 35 42 44 44 49 60 77 83 83 87 80 93 96 103 103 106 96 92 73
46 46 48 49 50 52 53 53 53 55 56 57 60 61 61 63 64 61 56 50 38 40 32 37 37 39 37 45 54 68 82 83 87 86 93 102 103 109 114 103 101 93 83
53 53 53 53 54 56 58 58 58 58 61 61 63 65 65 64 58 54 50 44 31 32 35 38 37 35 37 46 59 77 84 89 91 93 99 105 108 112 120 109 104 98 84
57 59 59 59 60 61 63 63 63 62 64 62 65 66 63 57 51 44 39 30 34 33 35 37 42 35 44 51 70 83 86 90 98 98 103 109 112 115 123 115 106 100 88
55 54 53 53 53 55 55 57 57 60 57 55 58 58 54 50 37 22 26 37 43 45 38 40 41 38 46 56 72 83 88 94 98 99 108 106 111 118 122 115 110 102 90
44 43 43 46 50 52 51 47 53 53 47 51 51 47 42 29 21 23 29 41 43 41 44 42 45 47 51 63 80 84 92 94 99 103 106 106 113 120 116 115 114 105 92